This is the latest recevied weather packets stored in our database for station/object IK8TGH-3. If no packets are shown the sender has not sent any weather packets the latest 10 day(s).
| Time | Temp. | Humidity | Pressure | Rain* | Wind** | Luminosity | Snow |
|---|---|---|---|---|---|---|---|
| 1777667561 | 17.78° C | 58% | 1021 hPa | - | - | - | - |
| 1777666361 | 18.33° C | 60% | 1020.9 hPa | - | - | - | - |
| 1777665160 | 18.33° C | 61% | 1021 hPa | - | - | - | - |
| 1777663960 | 18.33° C | 59% | 1020.8 hPa | - | - | - | - |
| 1777662760 | 17.78° C | 57% | 1020.6 hPa | - | - | - | - |
| 1777661560 | 18.33° C | 53% | 1020.4 hPa | - | - | - | - |
| 1777660359 | 17.78° C | 51% | 1020.1 hPa | - | - | - | - |
| 1777659159 | 18.33° C | 51% | 1019.8 hPa | - | - | - | - |
| 1777657959 | 17.78° C | 49% | 1019.6 hPa | - | - | - | - |
| 1777656758 | 17.78° C | 51% | 1019.4 hPa | - | - | - | - |
| 1777655558 | 18.33° C | 50% | 1019.3 hPa | - | - | - | - |
| 1777654357 | 18.33° C | 50% | 1019.2 hPa | - | - | - | - |
| 1777653157 | 17.78° C | 53% | 1019 hPa | - | - | - | - |
| 1777651957 | 18.33° C | 54% | 1018.9 hPa | - | - | - | - |
| 1777650757 | 17.78° C | 54% | 1019 hPa | - | - | - | - |
| 1777649556 | 17.78° C | 54% | 1019 hPa | - | - | - | - |
| 1777648356 | 17.78° C | 54% | 1019 hPa | - | - | - | - |
| 1777647156 | 17.78° C | 54% | 1019.1 hPa | - | - | - | - |
| 1777645955 | 17.78° C | 54% | 1019.2 hPa | - | - | - | - |
| 1777644785 | 17.78° C | 53% | 1019.3 hPa | - | - | - | - |
| 1777643585 | 17.78° C | 54% | 1019.4 hPa | - | - | - | - |
| 1777642384 | 17.78° C | 54% | 1019.4 hPa | - | - | - | - |
| 1777641184 | 17.78° C | 53% | 1019.6 hPa | - | - | - | - |
| 1777639984 | 17.78° C | 53% | 1019.7 hPa | - | - | - | - |
| 1777638783 | 17.22° C | 54% | 1019.8 hPa | - | - | - | - |
* Rain since midnight (hover to see other rain measurements)
** Current wind speed in m/s (hover to see current wind gust speed)